Location: Coopersdale
(40.3556°N, 78.9372°W)
Time: 00:40:07
(UTC+00:00)

Transit 4A - Pass Details

Date: 29 January 2021
Orbit: 867 x 978 km, 66.8° (Epoch: 07 March)

Event Time Altitude Azimuth Distance (km) Brightness Sun altitude
Rises 23:33:25 0° 226° (SW) 3,660 12.1 -12.1°
Reaches altitude 10° 23:36:05 10° 232° (SW) 2,720 11.4 -12.6°
Maximum altitude 23:42:13 48° 305° (NW) 1,257 8.9 -13.8°
Drops below altitude 10° 23:48:21 10° 19° (NNE) 2,715 10.0 -14.9°
Enters shadow 23:50:29 - 25° (NNE) 3,459 10.5 -15.3°
Sets 23:51:01 0° 26° (NNE) 3,654 - -15.4°
